Weather History for Cold Bay, AK

Change the Weather History Date:

Friday, February 8, 2013

  Actual Average Record
Temperature  
Mean Temperature 37 °F 29 °F  
Max Temperature 39 °F 33 °F 42 °F (2003)
Min Temperature 34 °F 24 °F 1 °F (1999)
Degree Days  
Heating Degree Days 28 36  
Month to date heating degree days 246 293  
Since 1 July heating degree days 5663 5509  
Cooling Degree Days 0    
Month to date cooling degree days 0  
Year to date cooling degree days 0  
Moisture  
Dew Point 35 °F    
Average Humidity 90    
Maximum Humidity 93    
Minimum Humidity 84    
Precipitation  
Precipitation 0.21 in 0.10 in 0.52 in (1987)
Month to date precipitation 0.63 0.84  
Year to date precipitation 4.22 4.00  
Snow  
Snow 1.00 in 0.50 in 3.00 in (1957)
Month to date snowfall 3.4 3.7  
Since 1 July snowfall 44.1 43.0  
Snow Depth T in    
Sea Level Pressure  
Sea Level Pressure 29.22 in    
Wind  
Wind Speed 15 mph (ESE)    
Max Wind Speed 28 mph    
Max Gust Speed 33 mph    
Visibility 9 miles    
Events Rain , Snow    
T = Trace of Precipitation, MM = Missing Value Source: NWS Daily Summary

Daily Weather History Graph

Daily Weather History Graph

Search for Another Location

Airport:

Trip Planner

Search our weather history database for the weather conditions in past years. The results will help you decide how hot, cold, wet, or windy it might be!

Date:

Astronomy

Feb. 08, 2013 Rise Set
Actual Time 9:27 AM AKST 6:43 PM AKST
Civil Twilight 8:48 AM AKST 7:22 PM AKST
Nautical Twilight 8:05 AM AKST 8:05 PM AKST
Astronomical Twilight 7:23 AM AKST 8:47 PM AKST
Moon 8:12 AM AKST (2/8) 5:27 PM AKST (2/8)
Length of Visible Light 10h 33m
Length of Day
9h 15m
Waning Crescent, 3% of the Moon is Illuminated
Feb 8
Waning Crescent
Feb 9
New
Feb 17
First Quarter
Feb 25
Full
Mar 4
Last Quarter

Hourly Weather History & Observations

Time (AKST) Temp. Windchill Dew Point Humidity Pressure Visibility Wind Dir Wind Speed Gust Speed Precip Events Conditions
12:53 AM 37.0 °F 25.1 °F 34.0 °F 89% 29.25 in 10.0 mi SSE 26.5 mph - N/A   Clear
1:44 AM 37.4 °F 27.5 °F 35.6 °F 93% 29.26 in 9.0 mi SE 18.4 mph - 0.00 in Rain Light Rain
1:53 AM 37.9 °F 27.3 °F 35.1 °F 89% 29.26 in 8.0 mi SE 21.9 mph 27.6 mph 0.00 in Rain Light Rain
3:53 AM 37.0 °F 25.9 °F 34.0 °F 89% 29.29 in 9.0 mi SSE 23.0 mph - 0.00 in   Overcast
4:53 AM 37.0 °F 25.4 °F 34.0 °F 89% 29.29 in 8.0 mi SSE 25.3 mph - N/A   Overcast
5:53 AM 37.0 °F 25.4 °F 35.1 °F 93% 29.29 in 8.0 mi SSE 25.3 mph - 0.00 in   Mostly Cloudy
6:18 AM 37.4 °F 26.6 °F 35.6 °F 93% 29.28 in 8.0 mi SE 21.9 mph 28.8 mph 0.00 in Rain Light Rain
6:53 AM 37.4 °F 27.2 °F 33.8 °F 87% 29.28 in 10.0 mi SE 19.6 mph - N/A   Scattered Clouds
7:53 AM 37.9 °F 26.8 °F 35.1 °F 89% 29.30 in 10.0 mi SSE 24.2 mph 32.2 mph N/A   Overcast
8:53 AM 37.0 °F 27.4 °F 35.1 °F 93% 29.31 in 8.0 mi SSE 17.3 mph - N/A   Mostly Cloudy
9:00 AM 37.4 °F 27.5 °F 35.6 °F 93% 29.30 in 8.0 mi SSE 18.4 mph - N/A   Mostly Cloudy
9:16 AM 37.4 °F 29.8 °F 35.6 °F 93% 29.31 in 8.0 mi SSE 11.5 mph - 0.00 in   Light Drizzle
9:31 AM 37.4 °F 28.9 °F 35.6 °F 93% 29.31 in 7.0 mi South 13.8 mph - 0.02 in   Light Drizzle
9:53 AM 37.9 °F 29.6 °F 36.0 °F 93% 29.32 in 5.0 mi SSE 13.8 mph - 0.03 in Rain Light Rain
10:01 AM 37.4 °F 28.5 °F 35.6 °F 93% 29.31 in 5.0 mi SSE 15.0 mph - 0.00 in Rain Light Rain
10:25 AM 37.4 °F 27.5 °F 35.6 °F 93% 29.31 in 7.0 mi SSE 18.4 mph - 0.00 in Rain Light Rain
10:53 AM 37.9 °F 30.0 °F 36.0 °F 93% 29.32 in 8.0 mi SE 12.7 mph - 0.00 in Rain Light Rain
11:08 AM 37.4 °F 29.8 °F 35.6 °F 93% 29.32 in 9.0 mi SE 11.5 mph - 0.00 in Rain Light Rain
11:42 AM 37.4 °F 32.8 °F 35.6 °F 93% 29.32 in 7.0 mi ENE 5.8 mph - 0.01 in Rain Light Rain
11:53 AM 37.9 °F 34.4 °F 35.1 °F 89% 29.32 in 8.0 mi ENE 4.6 mph - 0.01 in Rain Light Rain
12:41 PM 39.2 °F 30.8 °F 35.6 °F 87% 29.31 in 10.0 mi SE 15.0 mph - 0.01 in Rain Light Rain
12:53 PM 39.0 °F 31.0 °F 35.1 °F 86% 29.31 in 10.0 mi SE 13.8 mph - 0.01 in Rain Light Rain
1:12 PM 37.4 °F 30.8 °F 33.8 °F 87% 29.31 in 8.0 mi South 9.2 mph - 0.01 in Rain Light Rain
1:24 PM 37.4 °F 33.8 °F 35.6 °F 93% 29.30 in 8.0 mi South 4.6 mph - 0.02 in Rain Light Rain
1:37 PM 37.4 °F 34.9 °F 35.6 °F 93% 29.29 in 10.0 mi South 3.5 mph - 0.02 in Rain Light Rain
1:53 PM 37.9 °F 35.5 °F 35.1 °F 89% 29.29 in 9.0 mi South 3.5 mph - 0.03 in Rain Light Rain
2:17 PM 39.2 °F 34.2 °F 35.6 °F 87% 29.27 in 10.0 mi ESE 6.9 mph - 0.01 in Rain Light Rain
2:35 PM 39.2 °F 33.0 °F 35.6 °F 87% 29.26 in 10.0 mi ESE 9.2 mph - 0.01 in Rain Light Rain
2:53 PM 37.9 °F 32.1 °F 35.1 °F 89% 29.26 in 10.0 mi ESE 8.1 mph - 0.02 in Rain Light Rain
3:39 PM 37.4 °F 32.1 °F 35.6 °F 93% 29.23 in 10.0 mi ESE 6.9 mph - 0.00 in Rain Light Rain
3:53 PM 37.9 °F 31.5 °F 35.1 °F 89% 29.23 in 10.0 mi ESE 9.2 mph - 0.00 in Rain Light Rain
4:53 PM 39.0 °F 36.8 °F 35.1 °F 86% 29.20 in 10.0 mi SE 3.5 mph - 0.00 in Rain Light Rain
5:53 PM 37.9 °F 33.5 °F 34.0 °F 86% 29.18 in 10.0 mi ENE 5.8 mph - 0.00 in   Overcast
6:53 PM 37.9 °F 33.5 °F 34.0 °F 86% 29.15 in 10.0 mi NE 5.8 mph - 0.01 in Rain Light Rain
7:28 PM 37.4 °F 33.8 °F 33.8 °F 87% 29.13 in 10.0 mi NE 4.6 mph - 0.01 in Rain Light Rain
7:53 PM 37.0 °F 31.6 °F 33.1 °F 86% 29.11 in 10.0 mi North 6.9 mph - 0.01 in Rain Light Rain
8:13 PM 37.4 °F 32.8 °F 33.8 °F 87% 29.09 in 10.0 mi North 5.8 mph - 0.00 in   Overcast
8:32 PM 37.4 °F 30.8 °F 33.8 °F 87% 29.08 in 10.0 mi North 9.2 mph - 0.00 in Rain Light Rain
8:53 PM 37.0 °F 29.3 °F 34.0 °F 89% 29.07 in 10.0 mi North 11.5 mph - 0.01 in Rain Light Rain
9:33 PM 35.6 °F 26.6 °F 33.8 °F 93% 29.04 in 10.0 mi North 13.8 mph - 0.01 in Rain Light Rain
9:53 PM 36.0 °F 26.0 °F 33.1 °F 89% 29.03 in 10.0 mi NNE 17.3 mph - 0.02 in Rain Light Rain
10:53 PM 34.0 °F 24.2 °F 32.0 °F 92% 28.98 in 9.0 mi North 15.0 mph - 0.04 in Snow Light Snow
11:00 PM 33.8 °F 23.5 °F 32.0 °F 93% 28.97 in 8.0 mi North 16.1 mph - 0.00 in Snow Light Snow
11:10 PM 33.8 °F 22.8 °F 32.0 °F 93% 28.96 in 7.0 mi North 18.4 mph 24.2 mph 0.00 in Snow Light Snow
11:18 PM 33.8 °F 22.8 °F 32.0 °F 93% 28.96 in 5.0 mi North 18.4 mph 25.3 mph 0.01 in Snow Light Snow
11:53 PM 34.0 °F 23.4 °F 32.0 °F 92% 28.93 in 10.0 mi North 17.3 mph 23.0 mph 0.02 in Rain Light Rain